Content
SEND FEEDBACK

Daily
Averages
Monthly
Summary
United States of America

COVINGTON, GEORGIA


Home > North America > United States > Georgia
Elevation: 752 feet     Latitude: 33 36N     Longitude: 083 52W

WEATHER
 
SELECT A DAY
Number of Records: 74,807;   Date Range: 9/1/10 - 10/23/13
 
SHARE

PRINT THIS DATA

[ ← Previous Day ]
WEATHER ALMANAC - JANUARY 31, 2013
[ Next Day → ]
[ °C ]   °F
Weather ElementAverageHighLow
Temperature42.7 °F50 °F (1:55 pm)35.6 °F (5:55 am)
Dewpoint16.4 °F32 °F (12:55 am)3.2 °F (1:35 pm)
Humidity38.4 %61 % (12:55 am)15 % (1:55 pm)
Barometer30.04 in30.16 in (9:35 pm)29.80 in (12:35 am)
Wind Speed9.6 mph21.9 mph (3:15 am)
Wind Gust33.4 mph (2:55 am)
Weather ElementAverage
Visibility10 mi
Wind DirectionSW (225.4 °)

Weather ElementTotal
Precipitation---
Heating Degree Days22.2 (Base 65)
Averaged from 63 records on January 31, 2013
WEATHER CONDITIONS BREAKOUT
WIND DIRECTION BREAKOUT
WEATHER BY HOUR - JANUARY 31, 2013
[ °C ]   °F
Local TimeTemperatureDewpointHumidityBarometerVisibilityWind DirectionWind SpeedGust SpeedPrecipitationEventsConditions
12:35 AM44.6 °F28.4 °F53 %29.80 in10.0 miWest (270°)11.5 mph20.7 mphMostly Cloudy
12:55 AM44.6 °F32.0 °F61 %29.83 in10.0 miWNW (300°)19.6 mph27.6 mphOvercast
1:15 AM42.8 °F30.2 °F61 %29.84 in10.0 miWest (280°)15.0 mph26.5 mphOvercast
1:35 AM42.8 °F28.4 °F57 %29.85 in10.0 miWest (280°)12.7 mph23.0 mphMostly Cloudy
1:55 AM42.8 °F26.6 °F53 %29.86 in10.0 miWest (270°)13.8 mph27.6 mphScattered Clouds
2:15 AM42.8 °F28.4 °F57 %29.87 in10.0 miWest (280°)10.4 mph16.1 mphMostly Cloudy
2:35 AM42.8 °F26.6 °F53 %29.88 in10.0 miWest (280°)15.0 mph25.3 mphMostly Cloudy
2:55 AM42.8 °F24.8 °F49 %29.90 in10.0 miWNW (290°)18.4 mph33.4 mphScattered Clouds
3:15 AM41.0 °F21.2 °F45 %29.91 in10.0 miWNW (300°)21.9 mph28.8 mphClear
3:35 AM39.2 °F21.2 °F49 %29.93 in10.0 miWest (280°)13.8 mph26.5 mphClear
3:55 AM39.2 °F21.2 °F49 %29.94 in10.0 miWest (280°)10.4 mph17.3 mphClear
4:15 AM37.4 °F21.2 °F52 %29.94 in10.0 miWest (280°)12.7 mph18.4 mphScattered Clouds
4:35 AM37.4 °F21.2 °F52 %29.93 in10.0 miWNW (290°)12.7 mph20.7 mphScattered Clouds
4:55 AM37.4 °F21.2 °F52 %29.94 in10.0 miWNW (290°)13.8 mph18.4 mphClear
5:15 AM37.4 °F21.2 °F52 %29.96 in10.0 miWest (280°)9.2 mphClear
5:35 AM37.4 °F21.2 °F52 %29.97 in10.0 miWest (280°)10.4 mphScattered Clouds
5:55 AM35.6 °F21.2 °F56 %29.98 in10.0 miWest (280°)6.9 mphScattered Clouds
6:15 AM35.6 °F21.2 °F56 %29.99 in10.0 miWest (280°)8.1 mphClear
6:35 AM35.6 °F21.2 °F56 %30.00 in10.0 miWest (280°)8.1 mphClear
7:15 AM35.6 °F21.2 °F56 %30.00 in10.0 miWest (280°)8.1 mphClear
7:35 AM35.6 °F21.2 °F56 %30.01 in10.0 miWest (280°)6.9 mphClear
7:55 AM35.6 °F19.4 °F52 %30.03 in10.0 miWest (260°)4.6 mphClear
8:15 AM35.6 °F19.4 °F52 %30.03 in10.0 miWest (280°)8.1 mphClear
8:35 AM37.4 °F19.4 °F48 %30.04 in10.0 miWest (280°)9.2 mphClear
8:55 AM37.4 °F19.4 °F48 %30.04 in10.0 miWest (280°)9.2 mph19.6 mphClear
9:15 AM37.4 °F19.4 °F48 %30.06 in10.0 miWNW (300°)9.2 mph20.7 mphClear
9:35 AM39.2 °F19.4 °F45 %30.07 in10.0 miNW (310°)15.0 mph23.0 mphClear
11:35 AM44.6 °F12.2 °F27 %30.08 inWest (270°)13.8 mph
11:55 AM46.4 °F14.0 °F27 %30.09 in10.0 miWNW (290°)10.4 mph17.3 mphClear
12:15 PM46.4 °F10.4 °F23 %30.09 in10.0 miWNW (290°)12.7 mph20.7 mphClear
12:35 PM48.2 °F8.6 °F20 %30.09 in10.0 miWest (260°)9.2 mph19.6 mphClear
12:55 PM48.2 °F5.0 °F17 %30.09 in10.0 miWest (280°)17.3 mph27.6 mphClear
1:15 PM48.2 °F6.8 °F19 %30.09 in10.0 miWNW (290°)17.3 mph23.0 mphClear
1:35 PM48.2 °F3.2 °F16 %30.09 in10.0 miWest (280°)19.6 mph25.3 mphClear
1:55 PM50.0 °F3.2 °F15 %30.09 in10.0 miNW (310°)13.8 mph28.8 mphClear
2:15 PM50.0 °F3.2 °F15 %30.09 in10.0 miWest (280°)13.8 mph26.5 mphClear
2:35 PM50.0 °F5.0 °F16 %30.09 in10.0 miWNW (300°)20.7 mph26.5 mphClear
2:55 PM50.0 °F3.2 °F15 %30.09 in10.0 miWNW (300°)17.3 mph27.6 mphClear
3:15 PM50.0 °F5.0 °F16 %30.09 in10.0 miWNW (290°)13.8 mph20.7 mphClear
3:35 PM50.0 °F3.2 °F15 %30.09 in10.0 miWNW (290°)15.0 mph25.3 mphClear
3:55 PM50.0 °F5.0 °F16 %30.09 in10.0 miNW (310°)15.0 mph25.3 mphClear
4:15 PM50.0 °F5.0 °F16 %30.09 in10.0 miWNW (300°)15.0 mphClear
4:35 PM50.0 °F5.0 °F16 %30.09 in10.0 miWest (280°)15.0 mph20.7 mphClear
4:55 PM50.0 °F6.8 °F17 %30.09 in10.0 miWNW (300°)11.5 mph18.4 mphClear
5:15 PM48.2 °F6.8 °F19 %30.09 in10.0 miWest (280°)10.4 mph17.3 mphClear
5:35 PM46.4 °F8.6 °F22 %30.09 in10.0 miWNW (290°)9.2 mphClear
5:55 PM46.4 °F10.4 °F23 %30.10 in10.0 miWest (280°)4.6 mphClear
6:15 PM46.4 °F12.2 °F25 %30.10 in10.0 miCalmClear
6:35 PM44.6 °F12.2 °F27 %30.11 in10.0 miCalmClear
6:55 PM44.6 °F14.0 °F29 %30.11 in10.0 miWSW (250°)3.5 mphClear
7:15 PM44.6 °F12.2 °F27 %30.12 in10.0 miWest (270°)4.6 mphClear
7:35 PM42.8 °F12.2 °F29 %30.12 in10.0 miWest (270°)3.5 mphClear
7:55 PM42.8 °F19.4 °F39 %30.13 in10.0 miCalmClear
8:15 PM42.8 °F21.2 °F42 %30.13 in10.0 miCalmClear
8:35 PM41.0 °F23.0 °F49 %30.13 in10.0 miCalmClear
8:55 PM41.0 °F19.4 °F42 %30.14 in10.0 miCalmClear
9:15 PM41.0 °F17.6 °F39 %30.15 in10.0 miCalmClear
9:35 PM41.0 °F19.4 °F42 %30.16 in10.0 miCalmClear
10:15 PM41.0 °F19.4 °F42 %30.15 in10.0 miCalmClear
10:35 PM39.2 °F21.2 °F49 %30.16 in10.0 miCalmClear
11:15 PM37.4 °F21.2 °F52 %30.16 in10.0 miCalmClear
11:35 PM39.2 °F21.2 °F49 %30.16 in10.0 miCalmClear
11:55 PM39.2 °F21.2 °F49 %30.16 in10.0 miCalmClear
Hourly data recorded from K9A1, located miles away from Covington, Georgia







STORIES FROM OUR PARTNERS